Location: Buffign�court
(47.8126°N, 6.0176°E)
Time: 15:05:47
(UTC+00:00)

H-2A R/B - Pass Details

Date: 16 June 2021
Orbit: 574 x 597 km, 98.2° (Epoch: 31 July)

Event Time Altitude Azimuth Distance (km) Brightness Sun altitude
Rises 21:59:59 0° 10° (N) 2,800 7.9 -15.6°
Reaches altitude 10° 22:02:10 10° 7° (N) 1,895 7.0 -15.7°
Maximum altitude 22:06:12 60° 288° (WNW) 665 3.9 -16.0°
Enters shadow 22:09:17 16° 211° (SSW) 1,512 5.2 -16.1°
